Flag for Canada Weather past 2 weeks in Labrador City, Newfoundland and Labrador, Canada

-8 °F


Feels Like: -28 °F
Forecast: N/A
Wind: 14 mph from Northwest

Location: Wabush Lake

Current Time: Nov 29, 2015 at 6:24:18 PM

Latest Report: Nov 29, 2015 at 5:00 PM

Visibility: 15 mi

Pressure: 30.30 "Hg (28.08 "Hg at 558m altitude)

Humidity: 70%

Dew point: -15 °F

Location of Labrador CityLocation

Historic Weather in Labrador City — Graph


Labrador City temperature yesterday

Maximum temperature yesterday: 10 °F (at 7:00 PM)
Minimum temperature yesterday: -20 °F (at 6:00 AM)
Average temperature yesterday: -2 °F

Past Weeks' High & Low Weather Summary

High36 °F (Nov 20, 10:00 AM)100% (Nov 14, 6:00 PM)30.66 "Hg (Nov 14, 6:00 PM)
Low-20 °F (Nov 28, 6:00 AM)59% (Nov 29, 1:00 PM)29.68 "Hg (Nov 22, 8:00 PM)
Average19 °F87%30.13 "Hg
* Reported Nov 14 4:00 PM — Nov 29 4:00 PM, Labrador City, Weather by CustomWeather, © 2015

Note: Actual official high and low records may vary slightly from our data, if they occured in-between our weather recording intervals... More about our weather records


Labrador City weather history for previous 24 hours

Time TempWeatherWind HumidityBarometerVisibility
4:00 PM
Sun, Nov 29
-6 °FSunny.13 mph64%30.28 "Hg15 mi
3:00 PM-4 °FSunny.15 mph65%30.24 "Hg15 mi
2:00 PM-4 °FSunny.13 mph65%30.21 "Hg15 mi
1:00 PM-2 °FSunny.17 mph59%30.19 "Hg15 mi
12:00 PM-2 °FSunny.14 mph65%30.17 "Hg15 mi
11:00 AM0 °FLow level haze.13 mph65%30.16 "Hg15 mi
10:00 AM1 °FLow level haze.9 mph71%30.14 "Hg15 mi
9:00 AM3 °FLow level haze.9 mph78%30.10 "Hg15 mi
8:00 AM7 °FLight snow. Overcast.9 mph78%30.07 "Hg10 mi
7:00 AM7 °FLight snow. Overcast.5 mph78%30.05 "Hg10 mi
6:00 AM5 °FLight snow. Overcast.7 mph85%30.04 "Hg10 mi
5:45 AM5 °FLight snow. Overcast.8 mph85%30.04 "Hg9 mi
5:00 AM3 °FLight snow. Overcast.8 mph85%30.03 "Hg9 mi
4:00 AM3 °FLight snow. Passing clouds.12 mph85%30.02 "Hg9 mi
2:00 AM5 °FOvercast.14 mph78%30.01 "Hg9 mi
1:00 AM5 °FLight snow. Mostly cloudy.12 mph78%30.01 "Hg9 mi
12:03 AM7 °FLight snow. Passing clouds.16 mph78%30.01 "Hg9 mi
11:00 PM
Sat, Nov 28
7 °FLight snow. Overcast.10 mph78%30.01 "Hg9 mi
10:00 PM7 °FLight snow. Passing clouds.13 mph78%30.01 "Hg10 mi
9:00 PM9 °FLight snow. Passing clouds.10 mph78%30.02 "Hg8 mi
8:00 PM9 °FLight snow. Mostly cloudy.10 mph78%30.00 "Hg5 mi
7:00 PM10 °FLight snow. Mostly cloudy.14 mph79%30.00 "Hg4 mi
6:00 PM9 °FLight snow. Overcast.9 mph85%29.98 "Hg4 mi
Weather by CustomWeather, © 2015

See weather overviewHow to use our weather pages